If you wish to contribute or participate in the discussions about articles you are invited to join SKYbrary as a registered user

 Actions

City of Derry Airport

From SKYbrary Wiki

EGAE
Airport
ICAO: EGAE – IATA: LDY
Summary
Name City of Derry Airport
Region Europe
Territory United Kingdom GB.gif
Location Eglinton, County Londonderry, Northern Ireland
Serving Derry
Elevation 7.01 m <br />23 ft7.01 m <br />
Coordinates 55° 2' 33.12" N, 7° 9' 45.04" W
Runways
Designator Length Width Surface ROPS
2/20 1205 m3,953.412 ft <br /> 45 m147.638 ft <br /> ASP no/no
8/26 1852 m6,076.115 ft <br /> 45 m147.638 ft <br /> ASP yes/yes


METAR
Observation EGAE 171050Z 18013KT 150V220 9999 SCT030 13/06 Q1026
Station Eglinton / Londonderr
Date/Time 17 April 2021 10:50:00
Wind direction 180°
Wind speed 13 kts
Lowest cloud amount scattered clouds
Temperature 13°C
Dew point 6°C
Humidity 62%
QNH 1026 hPa
Weather condition n/a

City of Derry/Londonderry Airport

ICAO: EGAE IATA: LDY

Description

Airport serving the city of Derry/Londonderry in the Northern Ireland, part of the UK.

Climatology

Temperate Marine climate/Oceanic climate (Köppen climate classification Cfb). Moderately cool summer and comparatively warm winter.

Maps

Terrain

Loading map...

Airport Layout

Loading map...


Accidents & Serious Incidents at or in vicinity of EGAE

None on SKYbrary